Starlink 11294

operational
NORAD ID: 61054 Int'l Des: 2024-164 Owner: SPXS Country: US Constellation: starlink
LEOCIRCULAR

Starlink 11294について

説明を読み込み中...

リアルタイム位置

3D地球を読み込み中...

次回通過

高度履歴

Altitude vs Time

uPlot chart will show altitude changes over time

軌道要素

1 61054U 24164E 26037.18553329 -.00002337 00000-0 -14437-4 0 9997
2 61054 53.1555 106.3665 0001609 68.1094 292.0095 15.69697645 80477
Epoch: Feb 6, 2026 • Age: 8 hours

現在のステータス

高度 363.2 km
速度 7.70 km/s
衛星直下点 42.38°N, 84.02°W
打ち上げ日 Sep 13, 2024
運用期間 1.3 years
タイプ internet

技術仕様

分類 Payload
質量 960.00 kg
乾燥質量 910.00 kg
総質量 960.00 kg
長さ 0.30 m
直径 4.10 m
スパン 29.00 m
形状 Box + pan
製造者 SPXS
バスタイプ Starlink V2MD
フェーズステータス In Orbit
所有者/国 SPXS/US

大規模コンステレーション

Loading constellations...